LOT7AB LZKZ-EPWA

Flight info

Callsign LOT7AB
Flight time 0h 40m
Altitude 32000
Route RAZEC N133 LENOV DCT ORTEB DCT KONZI DCT LOGDA
Aircraft E195/M-SDE3GILORVW/S

Departure

Time 2026-05-07 19:47
Airport Košice International Airport (LZKZ)

Arrival

Time 2026-05-07 20:28
Airport Warsaw Chopin Airport (EPWA)
Time Latitude Longitude Altitude Speed Heading
2026-05-07 19:26 48.67253 21.23925 756 ft 0 kts 13°
2026-05-07 19:44 48.67256 21.23926 756 ft 2 kts 13°
2026-05-07 19:44 48.67279 21.23935 756 ft 5 kts 17°
2026-05-07 19:45 48.67295 21.23979 754 ft 6 kts 85°
2026-05-07 19:45 48.67286 21.24046 755 ft 7 kts 103°
2026-05-07 19:45 48.67272 21.24132 756 ft 9 kts 103°
2026-05-07 19:45 48.67256 21.24237 756 ft 11 kts 103°
2026-05-07 19:46 48.67237 21.24359 755 ft 11 kts 103°
2026-05-07 19:46 48.67212 21.24415 757 ft 6 kts 147°
2026-05-07 19:46 48.67171 21.24420 755 ft 6 kts 192°
2026-05-07 19:46 48.67077 21.24388 758 ft 39 kts 193°
2026-05-07 19:47 48.66566 21.24210 754 ft 112 kts 193°
2026-05-07 19:47 48.65593 21.23864 889 ft 164 kts 194°
2026-05-07 19:47 48.64411 21.23435 1518 ft 184 kts 193°
2026-05-07 19:47 48.63182 21.23014 2130 ft 182 kts 196°
2026-05-07 19:48 48.61911 21.22516 2776 ft 194 kts 197°
2026-05-07 19:48 48.60557 21.22001 3413 ft 208 kts 197°
2026-05-07 19:48 48.59108 21.21446 4160 ft 216 kts 197°
2026-05-07 19:48 48.57644 21.20918 5054 ft 217 kts 196°
2026-05-07 19:49 48.56219 21.20164 5662 ft 230 kts 212°
2026-05-07 19:49 48.55063 21.18378 6115 ft 249 kts 240°
2026-05-07 19:49 48.54563 21.15795 6711 ft 265 kts 265°
2026-05-07 19:49 48.54860 21.13030 7496 ft 272 kts 287°
2026-05-07 19:50 48.55605 21.10393 8299 ft 276 kts 291°
2026-05-07 19:50 48.56442 21.07798 9071 ft 280 kts 294°
2026-05-07 19:50 48.57396 21.05197 9842 ft 285 kts 301°
2026-05-07 19:50 48.58883 21.03117 10267 ft 308 kts 330°
2026-05-07 19:51 48.61018 21.02445 10693 ft 328 kts
2026-05-07 19:51 48.63242 21.03453 11383 ft 335 kts 25°
2026-05-07 19:51 48.65290 21.05111 12121 ft 338 kts 28°
2026-05-07 19:51 48.67355 21.06814 12847 ft 342 kts 28°
2026-05-07 19:52 48.69468 21.08582 13587 ft 345 kts 29°
2026-05-07 19:52 48.71553 21.10427 14253 ft 349 kts 30°
2026-05-07 19:52 48.73764 21.11865 14835 ft 353 kts 14°
2026-05-07 19:52 48.76218 21.12583 15472 ft 356 kts
2026-05-07 19:53 48.78644 21.13137 16100 ft 360 kts
2026-05-07 19:53 48.81160 21.13750 16701 ft 365 kts
2026-05-07 19:53 48.83652 21.14376 17308 ft 369 kts
2026-05-07 19:53 48.86204 21.15027 17897 ft 374 kts
2026-05-07 19:54 48.88788 21.15681 18475 ft 378 kts
2026-05-07 19:54 48.91392 21.16219 19040 ft 381 kts
2026-05-07 19:54 48.94041 21.15770 19645 ft 380 kts 346°
2026-05-07 19:54 48.96610 21.14827 20252 ft 383 kts 343°
2026-05-07 19:55 48.99207 21.13821 20850 ft 387 kts 343°
2026-05-07 19:55 49.01799 21.12830 21422 ft 391 kts 343°
2026-05-07 19:55 49.04478 21.11831 21957 ft 395 kts 343°
2026-05-07 19:55 49.07159 21.10843 22474 ft 398 kts 343°
2026-05-07 19:56 49.09865 21.09851 22974 ft 401 kts 343°
2026-05-07 19:56 49.12596 21.08847 23483 ft 404 kts 343°
2026-05-07 19:56 49.15343 21.07843 23925 ft 408 kts 344°
2026-05-07 19:56 49.18110 21.06832 24351 ft 411 kts 343°
2026-05-07 19:57 49.20901 21.05808 24791 ft 414 kts 343°
2026-05-07 19:57 49.23715 21.04780 25254 ft 417 kts 343°
2026-05-07 19:57 49.26513 21.03749 25708 ft 420 kts 343°
2026-05-07 19:57 49.29360 21.02704 26110 ft 423 kts 343°
2026-05-07 19:58 49.32235 21.01643 26478 ft 427 kts 343°
2026-05-07 19:58 49.35073 21.00363 26852 ft 427 kts 337°
2026-05-07 19:58 49.37857 20.98796 27228 ft 428 kts 335°
2026-05-07 19:58 49.40664 20.97162 27568 ft 431 kts 335°
2026-05-07 19:59 49.43477 20.95515 27889 ft 436 kts 335°
2026-05-07 19:59 49.46336 20.93868 28277 ft 439 kts 335°
2026-05-07 19:59 49.49192 20.92240 28630 ft 441 kts 335°
2026-05-07 19:59 49.52088 20.90595 29025 ft 443 kts 335°
2026-05-07 20:00 49.54987 20.88942 29560 ft 442 kts 335°
2026-05-07 20:00 49.57857 20.87293 30000 ft 442 kts 334°
2026-05-07 20:00 49.60734 20.85633 30433 ft 441 kts 334°
2026-05-07 20:00 49.63553 20.84008 30850 ft 440 kts 334°
2026-05-07 20:01 49.66461 20.82329 31268 ft 439 kts 334°
2026-05-07 20:01 49.69262 20.80712 31651 ft 437 kts 334°
2026-05-07 20:01 49.72063 20.79096 32145 ft 426 kts 334°
2026-05-07 20:01 49.74908 20.77449 32084 ft 436 kts 334°
2026-05-07 20:02 49.77703 20.75815 31983 ft 447 kts 334°
2026-05-07 20:02 49.80442 20.74220 31972 ft 445 kts 334°
2026-05-07 20:02 49.85648 20.71195 31966 ft 447 kts 334°
2026-05-07 20:03 49.91428 20.67836 31986 ft 448 kts 334°
2026-05-07 20:03 49.96980 20.64589 31977 ft 447 kts 334°
2026-05-07 20:04 50.02352 20.61440 31982 ft 448 kts 334°
2026-05-07 20:04 50.07638 20.58341 31982 ft 447 kts 334°
2026-05-07 20:05 50.10690 20.56956 31981 ft 454 kts 347°
2026-05-07 20:05 50.13695 20.56669 32010 ft 460 kts 358°
2026-05-07 20:05 50.19804 20.57443 31968 ft 464 kts
2026-05-07 20:06 50.24479 20.58257 31969 ft 464 kts
2026-05-07 20:06 50.31988 20.59109 31974 ft 464 kts
2026-05-07 20:07 50.38440 20.59826 31973 ft 464 kts
2026-05-07 20:07 50.44855 20.60591 31975 ft 464 kts
2026-05-07 20:08 50.51323 20.61363 31978 ft 464 kts
2026-05-07 20:08 50.57726 20.62129 31975 ft 464 kts
2026-05-07 20:09 50.60939 20.62465 31565 ft 461 kts
2026-05-07 20:09 50.64128 20.62781 31237 ft 455 kts
2026-05-07 20:09 50.67282 20.63093 30551 ft 458 kts
2026-05-07 20:10 50.72561 20.63629 29485 ft 455 kts
2026-05-07 20:10 50.76756 20.64058 28679 ft 454 kts
2026-05-07 20:10 50.78888 20.64279 28298 ft 453 kts
2026-05-07 20:10 50.82014 20.64601 27674 ft 451 kts
2026-05-07 20:11 50.85117 20.64921 27090 ft 446 kts
2026-05-07 20:11 50.88183 20.65237 26504 ft 441 kts
2026-05-07 20:11 50.92257 20.65659 25705 ft 437 kts
2026-05-07 20:11 50.94251 20.65865 25352 ft 433 kts
2026-05-07 20:12 50.97264 20.66180 24754 ft 430 kts
2026-05-07 20:12 51.00234 20.66485 24204 ft 425 kts
2026-05-07 20:12 51.03153 20.66789 23631 ft 421 kts
2026-05-07 20:12 51.06053 20.67086 23071 ft 414 kts
2026-05-07 20:13 51.08928 20.67364 22536 ft 408 kts
2026-05-07 20:13 51.11726 20.67636 22005 ft 404 kts
2026-05-07 20:13 51.14506 20.67919 21476 ft 400 kts
2026-05-07 20:13 51.17282 20.68203 20950 ft 397 kts
2026-05-07 20:14 51.20019 20.68490 20419 ft 394 kts
2026-05-07 20:14 51.22744 20.68773 19901 ft 391 kts
2026-05-07 20:14 51.25467 20.69061 19386 ft 387 kts
2026-05-07 20:14 51.28133 20.69390 19077 ft 379 kts
2026-05-07 20:15 51.30664 20.70384 18832 ft 377 kts 18°
2026-05-07 20:15 51.33156 20.71754 18397 ft 379 kts 18°
2026-05-07 20:15 51.35654 20.73078 17281 ft 377 kts 19°
2026-05-07 20:15 51.38105 20.74465 16151 ft 370 kts 19°
2026-05-07 20:16 51.40503 20.75817 15738 ft 361 kts 18°
2026-05-07 20:16 51.42861 20.77139 15216 ft 356 kts 18°
2026-05-07 20:16 51.45168 20.78427 14768 ft 350 kts 18°
2026-05-07 20:16 51.47453 20.79698 14307 ft 346 kts 18°
2026-05-07 20:17 51.49709 20.80957 13859 ft 342 kts 18°
2026-05-07 20:17 51.51968 20.82213 13391 ft 339 kts 18°
2026-05-07 20:17 51.54170 20.83440 12954 ft 335 kts 18°
2026-05-07 20:17 51.56344 20.84653 12506 ft 329 kts 17°
2026-05-07 20:18 51.58487 20.85849 12079 ft 324 kts 17°
2026-05-07 20:18 51.60597 20.87030 11651 ft 319 kts 17°
2026-05-07 20:18 51.62701 20.88208 11235 ft 315 kts 17°
2026-05-07 20:18 51.64751 20.89356 10813 ft 310 kts 17°
2026-05-07 20:19 51.66773 20.90491 10405 ft 307 kts 18°
2026-05-07 20:19 51.68757 20.91632 9996 ft 300 kts 18°
2026-05-07 20:19 51.70691 20.92738 9616 ft 293 kts 17°
2026-05-07 20:19 51.72609 20.93825 9238 ft 291 kts 17°
2026-05-07 20:20 51.74502 20.94894 8855 ft 289 kts 17°
2026-05-07 20:20 51.76415 20.95966 8468 ft 288 kts 17°
2026-05-07 20:20 51.78305 20.97027 8090 ft 286 kts 17°
2026-05-07 20:20 51.80159 20.98072 7694 ft 286 kts 17°
2026-05-07 20:21 51.82034 20.99129 7298 ft 284 kts 17°
2026-05-07 20:21 51.83901 21.00185 6930 ft 282 kts 17°
2026-05-07 20:21 51.85749 21.01230 6558 ft 280 kts 17°
2026-05-07 20:21 51.87559 21.02255 6180 ft 277 kts 17°
2026-05-07 20:22 51.89391 21.03292 5815 ft 275 kts 17°
2026-05-07 20:22 51.91169 21.04298 5455 ft 273 kts 17°
2026-05-07 20:22 51.92957 21.05289 5102 ft 271 kts 17°
2026-05-07 20:22 51.94738 21.06307 4719 ft 265 kts 17°
2026-05-07 20:23 51.96446 21.07273 4374 ft 252 kts 17°
2026-05-07 20:23 51.98061 21.08186 4058 ft 240 kts 18°
2026-05-07 20:23 51.99574 21.09044 3766 ft 225 kts 18°
2026-05-07 20:23 52.01049 21.09523 3593 ft 210 kts 357°
2026-05-07 20:24 52.02468 21.09036 3208 ft 208 kts 335°
2026-05-07 20:24 52.03701 21.07917 2990 ft 200 kts 328°
2026-05-07 20:24 52.04905 21.06852 2755 ft 194 kts 334°
2026-05-07 20:24 52.06117 21.05881 2505 ft 190 kts 333°
2026-05-07 20:25 52.07259 21.04856 2248 ft 185 kts 332°
2026-05-07 20:25 52.08342 21.03901 2008 ft 170 kts 334°
2026-05-07 20:25 52.09349 21.03040 1773 ft 156 kts 334°
2026-05-07 20:25 52.10261 21.02236 1617 ft 144 kts 334°
2026-05-07 20:26 52.11140 21.01467 1382 ft 141 kts 334°
2026-05-07 20:26 52.11983 21.00736 1180 ft 137 kts 334°
2026-05-07 20:26 52.12822 21.00007 1002 ft 136 kts 332°
2026-05-07 20:26 52.13648 20.99268 809 ft 137 kts 332°
2026-05-07 20:27 52.14496 20.98538 628 ft 136 kts 333°
2026-05-07 20:27 52.15320 20.97816 434 ft 135 kts 333°
2026-05-07 20:27 52.16127 20.97101 337 ft 122 kts 333°
2026-05-07 20:27 52.16767 20.96544 335 ft 85 kts 332°
2026-05-07 20:28 52.17161 20.96199 335 ft 39 kts 332°
2026-05-07 20:28 52.17341 20.96080 334 ft 26 kts 348°
2026-05-07 20:28 52.17477 20.96063 338 ft 10 kts
2026-05-07 20:28 52.17521 20.96062 337 ft 0 kts 358°
2026-05-07 20:29 52.17531 20.96062 338 ft 3 kts 359°
2026-05-07 20:29 52.17557 20.96072 336 ft 5 kts 21°
2026-05-07 20:29 52.17581 20.96126 336 ft 7 kts 71°
2026-05-07 20:29 52.17580 20.96207 335 ft 6 kts 108°
2026-05-07 20:30 52.17551 20.96256 335 ft 7 kts 150°
2026-05-07 20:30 52.17501 20.96300 338 ft 10 kts 152°
2026-05-07 20:30 52.17435 20.96358 334 ft 12 kts 152°
2026-05-07 20:30 52.17354 20.96429 335 ft 14 kts 152°
2026-05-07 20:31 52.17259 20.96512 336 ft 17 kts 152°
2026-05-07 20:31 52.17156 20.96601 336 ft 13 kts 152°
2026-05-07 20:31 52.17128 20.96666 336 ft 8 kts 94°
2026-05-07 20:31 52.17149 20.96748 337 ft 9 kts 61°
2026-05-07 20:32 52.17163 20.96817 335 ft 6 kts 99°
2026-05-07 20:32 52.17129 20.96865 337 ft 8 kts 151°
2026-05-07 20:32 52.17074 20.96913 336 ft 10 kts 152°
2026-05-07 20:32 52.17005 20.96974 335 ft 13 kts 152°
2026-05-07 20:33 52.16920 20.97048 337 ft 15 kts 152°
2026-05-07 20:33 52.16854 20.97105 336 ft 9 kts 152°
2026-05-07 20:33 52.16832 20.97134 335 ft 3 kts 122°
2026-05-07 20:33 52.16834 20.97183 333 ft 5 kts 77°
2026-05-07 20:34 52.16844 20.97246 336 ft 4 kts 76°
2026-05-07 20:34 52.16848 20.97273 337 ft 1 kts 76°
2026-05-07 20:34 52.16848 20.97276 336 ft 0 kts 76°